Weather in Vysokoye

Russia / Tver Oblast     56°41′51″N   34°53′54″E
temp.,
°C
wind,
m/s
gust,
m/s
humid.,
%
clouds,
%
prec.,
mm/h
press.,
hPa
HPBL,
m
8 may, sat
sat800:00+5se3988100 0.0 1009197
03:00+6sse3118299 0.0 1008463
06:00+6se31095100 1.8 10051019
09:00+8s3794100 2.1 1005730
12:00+11ssw3476100 0.1 1005926
15:00+8nw4786100 0.7 1005598
18:00+7nnw4981100 0.4 1005765
21:00+6nnw51179100 0.4 1006889
9 may, sun
sun900:00+4nw51177100 0.0 1007956
03:00+3nw51282100 0.1 1009973
06:00+3nw51180100 0.0 1012859
09:00+5nw6116369 0.0 10141224
12:00+10nw6840100 0.0 10162418
15:00+12nw6835100 0.0 10182727
18:00+11nw47395 0.0 10202440
21:00+5wnw25589 0.0 102380
10 may, mon
mon1000:00+3w22665 0.0 102529
03:00+2wsw11736 0.0 102711
06:00+3ssw247518 0.0 102894
09:00+11ssw36478 0.0 1028668
12:00+14sw4643100 0.0 10281541
15:00+15sw454457 0.0 10281195
18:00+16ssw355410 0.0 10271125
21:00+10ssw23825 0.0 102944
11 may, tue
tue1100:00+8sw2390100 0.0 103063
03:00+7sw2290100 0.0 103014
06:00+8ssw2285100 0.0 103164
09:00+14s246296 0.0 1031474
12:00+18sse344889 0.0 10301185
15:00+19sse2347100 0.0 10291259
18:00+18sse135577 0.0 1028712
21:00+12se2279100 0.0 102821
12 may, wed
wed1200:00+10se248990 0.0 102963
03:00+9ese2289100 0.0 102830
06:00+9e2684100 0.0 1028150
09:00+15e365263 0.0 1028635
12:00+19ese46430 0.0 10271160
15:00+21se464945 0.0 10251723
18:00+20ese465930 0.1 10251217
21:00+14e210856 0.1 1025219